Simultaneous Nadir Overpasses (SNOs) Predictions

Prediction of SNOs between METOP-B and TERRA Satellite Orbit:

Table of predicted SNOs for the next 14.0 days since TLE Epoch: 4/11/2020
Index Date (METOP-B) Time (METOP-B) Lat,Lon (METOP-B) SZA (METOP-B ) Date (TERRA) Time (TERRA) Lat,Lon (TERRA) SZA (TERRA ) Distance(km) Time Diff (sec)
1 04/12/2020 12:07:44 -81.31,-134.56 104.83 04/12/2020 12:08:33 -81.32,-134.46 104.79 1.85 49
2 04/12/2020 12:58:24 81.32, 33.22 75.22 04/12/2020 12:57:59 81.32, 33.30 75.22 1.53 25
3 04/15/2020 07:42:06 -81.31, -68.22 105.82 04/15/2020 07:42:46 -81.30, -68.32 105.82 1.83 40
4 04/15/2020 08:32:46 81.32, 99.54 74.22 04/15/2020 08:32:12 81.31, 99.41 74.19 2.32 34
5 04/18/2020 03:16:29 -81.31, -1.90 106.80 04/18/2020 03:16:59 -81.30, -1.84 106.78 1.06 30
6 04/18/2020 04:07:09 81.31, 165.84 73.24 04/18/2020 04:06:25 81.31, 165.87 73.22 0.84 44
7 04/20/2020 22:50:51 -81.31, 64.80 107.71 04/20/2020 22:51:11 -81.32, 64.97 107.67 2.96 20
8 04/20/2020 23:41:31 81.32,-127.48 72.33 04/20/2020 23:40:37 81.33,-127.35 72.33 2.43 54
9 04/23/2020 18:25:12 -81.32, 131.49 108.59 04/23/2020 18:25:23 -81.32, 131.35 108.60 2.44 11




NCC Satellite Simultaneous Nadir Overpasses (SNOs) Prediction Service
